Simultaneous Nadir Overpasses (SNOs) Predictions

Prediction of SNOs between LANDSAT-8 and NOAA-19 Satellite Orbit:

Table of predicted SNOs for the next 14.0 days since TLE Epoch: 6/29/2018
Index Date (LANDSAT-8) Time (LANDSAT-8) Lat,Lon (LANDSAT-8) SZA (LANDSAT-8 ) Date (NOAA-19) Time (NOAA-19) Lat,Lon (NOAA-19) SZA (NOAA-19 ) Distance(km) Time Diff (sec)
1 06/30/2018 12:16:20 -77.71,-169.91 125.15 06/30/2018 12:15:29 -77.70,-169.85 125.16 1.64 51
2 06/30/2018 13:05:47 77.66, -2.50 54.80 06/30/2018 13:06:27 77.68, -2.47 54.83 2.47 40
3 07/02/2018 17:50:04 77.73, -73.24 55.03 07/02/2018 17:49:03 77.74, -73.34 55.02 2.31 61
4 07/02/2018 18:39:32 -77.70, 94.26 125.00 07/02/2018 18:40:04 -77.70, 94.11 125.01 3.64 32
5 07/04/2018 23:23:50 -77.73, 23.32 124.79 07/04/2018 23:22:39 -77.74, 23.33 124.80 0.43 71
6 07/05/2018 00:13:17 77.68,-169.28 55.15 07/05/2018 00:13:38 77.71,-169.28 55.19 3.99 21
7 07/07/2018 04:57:29 77.97, 120.94 55.72 07/07/2018 04:56:21 78.04, 118.32 55.64 61.22 68
8 07/07/2018 05:47:02 -77.72, -72.52 124.58 07/07/2018 05:47:13 -77.70, -72.52 124.60 2.76 11
9 07/09/2018 11:20:46 77.73, 24.08 55.68 07/09/2018 11:20:48 77.71, 24.06 55.67 1.70 2
10 07/11/2018 16:54:32 -77.73, 120.64 124.04 07/11/2018 16:54:23 -77.75, 120.58 124.03 2.53 9




NCC Satellite Simultaneous Nadir Overpasses (SNOs) Prediction Service
